Borger, TX

4:34 AM CDT on July 27, 2017 (GMT -0500)
Hutchinson County

Weather History for KBGD - October, 2013

Change the Weather History Date:

Wednesday, October 9, 2013

  Actual Average Record
Temperature  
Mean Temperature 70 °F 63 °F  
Max Temperature 83 °F 75 °F 94 °F (1965)
Min Temperature 57 °F 51 °F 31 °F (1970)
Degree Days  
Heating Degree Days 0 5  
Month to date heating degree days 16 33  
Since 1 July heating degree days 19 61  
Cooling Degree Days 5 2  
Month to date cooling degree days 43 28  
Year to date cooling degree days 2205 1813  
Growing Degree Days 20 (Base 50)    
Moisture  
Dew Point 39 °F    
Average Humidity 35    
Maximum Humidity 47    
Minimum Humidity 22    
Precipitation  
Precipitation 0.00 in 0.05 in 1.14 in (1985)
Month to date precipitation 0.00 0.62  
Year to date precipitation 13.82 19.01  
Snow  
Snow 0.00 in - T in (1970)
Month to date snowfall 0.0  
Since 1 July snowfall 0.0  
Since 1 September snowfall 0.0  
Snow Depth 0.00 in    
Sea Level Pressure  
Sea Level Pressure 29.82 in    
Wind  
Wind Speed 14 mph (South)    
Max Wind Speed 24 mph    
Max Gust Speed 33 mph    
Visibility 10 miles    
Events      
T = Trace of Precipitation, MM = Missing Value Source: NWS Daily Summary

Daily Weather History Graph

Daily Weather History Graph

Search for Another Location

Airport or City:

Trip Planner

Search our weather history database for the weather conditions in past years. The results will help you decide how hot, cold, wet, or windy it might be!

Date:

Astronomy

Oct. 09, 2013 Rise Set
Actual Time 7:47 AM CDT 7:17 PM CDT
Civil Twilight 7:21 AM CDT 7:43 PM CDT
Nautical Twilight 6:52 AM CDT 8:12 PM CDT
Astronomical Twilight 6:22 AM CDT 8:42 PM CDT
Moon 12:36 PM CDT (10/9) 11:01 PM CDT (10/9)
Length of Visible Light 12h 21m
Length of Day
11h 30m
Waxing Crescent, 25% of the Moon is Illuminated
Oct 9
Waxing Crescent
Oct 11
First Quarter
Oct 18
Full
Oct 26
Last Quarter
Nov 3
New

Hourly Weather History & Observations

Time (CDT) Temp. Dew Point Humidity Pressure Visibility Wind Dir Wind Speed Gust Speed Precip Events Conditions
12:51 AM 66.0 °F 33.1 °F 29% 29.78 in 10.0 mi South 16.1 mph 26.5 mph N/A   Clear
1:51 AM 64.9 °F 34.0 °F 32% 29.78 in 10.0 mi South 18.4 mph 27.6 mph N/A   Clear
2:51 AM 64.0 °F 34.0 °F 33% 29.79 in 10.0 mi South 18.4 mph 27.6 mph N/A   Clear
3:51 AM 62.1 °F 35.1 °F 37% 29.78 in 10.0 mi South 17.3 mph 29.9 mph N/A   Clear
4:51 AM 63.0 °F 36.0 °F 37% 29.79 in 10.0 mi South 15.0 mph 26.5 mph N/A   Clear
5:51 AM 61.0 °F 36.0 °F 39% 29.82 in 10.0 mi SSW 8.1 mph 19.6 mph N/A   Clear
6:51 AM 57.9 °F 36.0 °F 44% 29.84 in 10.0 mi WSW 4.6 mph - N/A   Clear
7:51 AM 57.9 °F 37.0 °F 46% 29.86 in 10.0 mi SSW 5.8 mph - N/A   Clear
8:51 AM 59.0 °F 37.0 °F 44% 29.88 in 10.0 mi South 8.1 mph - N/A   Clear
9:51 AM 63.0 °F 37.9 °F 40% 29.88 in 10.0 mi SSW 8.1 mph - N/A   Clear
10:51 AM 69.1 °F 37.9 °F 32% 29.88 in 10.0 mi South 11.5 mph 16.1 mph N/A   Clear
11:51 AM 75.0 °F 37.9 °F 26% 29.86 in 10.0 mi South 12.7 mph 18.4 mph N/A   Clear
12:51 PM 78.1 °F 39.0 °F 25% 29.85 in 10.0 mi South 13.8 mph 18.4 mph N/A   Clear
1:51 PM 82.0 °F 39.0 °F 22% 29.81 in 10.0 mi South 17.3 mph 24.2 mph N/A   Clear
2:51 PM 82.0 °F 39.9 °F 22% 29.79 in 10.0 mi SSE 12.7 mph 25.3 mph N/A   Clear
3:51 PM 81.0 °F 42.1 °F 25% 29.79 in 10.0 mi SSE 13.8 mph 29.9 mph N/A   Clear
4:51 PM 82.0 °F 41.0 °F 23% 29.78 in 10.0 mi SSE 17.3 mph 26.5 mph N/A   Clear
5:51 PM 82.0 °F 39.0 °F 22% 29.76 in 10.0 mi SSE 20.7 mph 31.1 mph N/A   Clear
6:51 PM 79.0 °F 39.9 °F 25% 29.78 in 10.0 mi SSE 20.7 mph 31.1 mph N/A   Clear
7:51 PM 75.0 °F 41.0 °F 29% 29.79 in 10.0 mi SE 17.3 mph 27.6 mph N/A   Clear
8:51 PM 73.0 °F 43.0 °F 34% 29.82 in 10.0 mi SSE 16.1 mph 26.5 mph N/A   Clear
9:51 PM 72.0 °F 44.1 °F 37% 29.82 in 10.0 mi SSE 15.0 mph 27.6 mph N/A   Clear
10:51 PM 70.0 °F 46.0 °F 42% 29.83 in 10.0 mi SSE 17.3 mph 25.3 mph N/A   Clear
11:51 PM 69.1 °F 46.9 °F 45% 29.83 in 10.0 mi SSE 19.6 mph 29.9 mph N/A   Clear